Lid_Strength_Index
3 2 2 0 1 0 0 0 0 0 0 0 1 1 1 1 2 5 7 6 9 15 13 10 10 13 14 16 20 19 18 19 22 24 24 25 29 21 24 18 19 21 23 26 27 25 22 10 10 14 10 7 7 7
2 2 2 0 1 0 0 0 0 0 0 0 0 1 1 1 1 4 6 5 6 11 12 9 8 8 9 10 15 21 18 21 17 24 25 25 25 26 24 23 13 21 17 20 19 18 10 8 8 6 8 9 8 8
1 2 3 0 1 -0 0 0 0 0 -0 0 0 1 1 1 1 3 6 5 8 11 12 13 11 9 8 8 9 17 19 12 16 15 20 21 24 19 27 23 19 17 16 17 15 12 10 8 7 6 6 6 5 5
1 3 3 1 0 -0 0 -0 -0 -0 0 0 0 0 0 1 1 3 5 7 10 16 20 15 10 11 9 9 9 10 12 15 15 16 20 20 21 14 18 15 17 15 14 15 14 11 10 9 8 7 6 6 7 7
2 2 2 1 0 0 0 -0 -0 -0 0 -0 0 0 0 1 1 4 6 6 8 11 19 18 13 12 11 10 10 10 10 14 10 12 14 19 15 13 13 16 16 12 13 14 15 11 11 10 10 10 10 9 9 10
2 2 1 1 0 0 -0 -0 -0 -0 -0 -0 0 0 0 1 2 6 10 6 6 9 14 21 15 16 15 13 13 14 12 12 10 13 16 16 12 11 20 23 13 11 11 11 12 13 12 11 11 12 13 13 12 13
1 2 2 0 0 0 -0 -0 -0 -0 -0 -0 -0 0 1 2 6 8 11 8 5 9 17 21 22 17 19 19 18 18 14 10 13 15 15 13 13 10 15 16 12 15 14 13 13 14 12 13 14 14 14 15 15 16
3 3 2 1 0 0 -0 -0 -0 -0 -0 0 -0 1 1 2 4 7 6 3 7 13 18 21 22 21 18 20 18 13 15 13 16 17 17 16 14 13 15 17 15 15 15 14 15 15 15 15 15 16 16 17 19 19
4 3 0 1 0 -0 -0 -0 -0 0 0 0 1 3 6 8 10 8 3 5 8 12 20 26 25 24 20 21 20 20 13 17 19 18 17 15 20 17 18 16 16 15 16 17 16 16 17 18 18 18 18 19 21 20
4 1 0 0 -0 -0 -0 -0 0 0 1 1 5 11 15 9 5 7 12 13 15 19 16 21 25 22 17 23 24 24 22 22 21 20 14 17 19 16 15 14 14 14 15 17 19 19 19 20 19 20 20 21 22 21
4 1 0 0 0 -0 0 0 1 1 3 10 15 17 11 7 11 17 21 21 26 25 27 23 22 23 17 23 24 16 18 18 19 20 17 17 20 17 15 15 14 14 15 16 17 19 21 21 21 22 22 22 23 23
1 0 0 0 0 0 1 1 2 7 9 10 11 11 15 19 22 21 29 30 29 25 27 23 22 21 22 19 19 19 19 18 23 17 17 24 19 17 17 17 17 18 20 21 22 21 22 24 25 26 25 25 23 23
0 0 0 0 0 0 1 2 4 4 7 12 16 19 18 23 23 26 28 28 29 30 28 27 24 24 23 20 21 19 20 20 16 20 24 22 18 18 19 19 21 24 27 26 27 27 28 29 29 32 26 24 23 23
0 0 -0 0 1 1 2 3 3 5 9 16 18 21 22 26 26 26 26 26 23 26 28 28 28 25 24 21 21 23 21 19 20 23 22 19 19 20 20 21 25 24 25 28 29 30 30 30 29 27 25 24 24 24
-0 0 1 1 1 2 2 3 5 10 14 18 18 22 25 25 31 32 34 28 28 30 27 27 27 23 26 25 25 24 25 28 25 23 21 21 21 22 23 23 25 27 28 29 30 31 30 28 26 25 24 24 23 24
0 1 2 2 2 3 3 5 10 14 16 18 21 23 29 26 28 30 33 29 27 26 27 26 31 29 27 26 26 28 27 27 26 27 23 23 24 25 25 25 26 27 28 29 28 29 27 26 25 25 24 24 25 26
2 5 2 2 3 3 4 10 13 18 19 20 23 30 28 28 24 27 29 26 20 25 27 30 29 25 21 24 25 27 27 26 24 24 24 24 25 24 24 24 24 25 26 26 26 26 26 25 24 25 26 25 25 26
5 3 3 3 5 7 15 14 17 18 22 25 22 26 30 30 28 30 30 25 24 27 27 26 25 26 23 23 24 25 26 26 25 25 25 24 24 24 24 25 25 25 26 26 26 25 25 26 26 26 26 25 25 26
5 4 3 3 7 14 16 17 19 22 25 28 28 28 30 30 30 29 29 27 28 27 26 27 28 28 27 25 25 26 26 28 27 26 25 25 25 25 25 25 25 25 25 25 26 26 26 26 27 26 26 26 27 27
3 4 5 6 8 14 17 20 20 20 24 23 28 28 28 28 28 31 32 28 27 29 28 32 30 29 29 29 28 28 27 26 27 29 28 26 25 25 26 26 26 26 26 25 26 25 26 26 26 27 27 27 28 28
6 7 7 12 18 20 22 26 24 25 27 26 30 28 27 29 30 31 30 30 28 35 32 32 29 29 30 28 27 31 29 28 29 30 29 28 26 26 26 26 26 27 27 27 27 28 28 29 29 30 32 34 34 34
12 8 16 15 19 21 22 25 24 27 25 28 28 30 31 29 31 31 30 30 34 34 34 30 30 31 33 31 28 29 28 29 28 29 26 27 29 27 27 27 27 27 28 29 32 34 35 36 37 38 38 39 38 38
10 13 18 19 19 21 23 27 25 29 25 27 30 28 30 31 30 29 31 35 34 32 30 29 29 30 31 29 28 28 28 28 29 29 29 29 28 28 28 28 28 33 34 34 37 39 38 36 37 38 40 40 40 39
14 22 23 26 24 26 29 29 32 31 31 30 30 29 29 29 28 28 31 34 31 28 30 29 29 29 31 31 29 29 29 28 29 29 32 34 34 33 32 36 39 40 39 37 40 40 40 40 38 39 40 41 41 41
19 24 25 27 32 27 31 31 31 28 31 36 29 28 29 32 30 31 31 30 29 28 29 31 31 31 32 32 32 32 32 33 35 36 38 41 41 41 39 40 41 41 43 40 40 41 41 43 41 42 42 43 41 39
27 31 29 34 30 26 32 29 31 31 35 32 33 35 36 32 30 29 31 30 28 28 29 31 31 32 33 34 35 36 33 36 40 39 38 44 43 42 42 42 40 36 43 44 43 41 40 41 43 42 41 41 39 41
29 31 33 34 32 33 32 34 34 32 33 30 33 33 33 31 31 32 33 30 28 30 30 29 31 31 31 31 32 32 33 37 35 35 40 43 43 42 40 39 38 35 37 39 43 43 40 40 40 40 40 41 42 40
34 36 30 32 34 37 33 37 35 33 34 37 35 32 31 31 30 34 33 29 29 29 29 28 29 31 31 31 33 36 37 39 38 44 42 40 43 43 44 42 39 30 34 36 36 36 40 39 39 38 39 35 34 38
33 34 33 33 37 36 40 36 35 36 35 37 33 34 35 36 33 35 31 31 30 30 30 30 30 30 31 34 37 41 45 43 35 34 35 36 36 35 41 41 40 39 38 37 30 27 29 31 31 32 32 33 32 34
33 38 35 39 35 35 36 38 36 38 41 39 40 37 36 34 33 33 32 31 31 31 32 32 34 34 36 37 37 38 44 46 43 37 35 35 35 38 38 38 37 37 36 36 32 31 28 30 29 31 31 31 30 30
39 37 35 37 36 37 37 36 39 42 42 41 44 38 37 37 33 33 33 33 32 30 31 32 32 35 36 36 41 42 35 41 44 41 40 39 39 39 38 36 37 38 37 35 33 32 31 31 31 30 29 28 27 27
37 39 35 33 34 36 42 40 41 40 39 38 37 41 37 34 35 33 30 33 31 31 31 30 32 32 34 36 39 38 35 36 37 36 37 36 37 36 35 35 35 36 34 32 31 30 30 30 29 28 28 29 29 30
40 42 44 40 36 35 38 37 37 36 38 39 38 42 40 36 34 31 30 33 32 32 31 30 29 29 33 38 39 40 38 39 38 32 30 29 28 27 28 32 33 33 32 31 30 29 29 28 29 30 31 31 31 31